| time (UTC) | temp C | wind direction | speed KPH | gust KPH | rain 1hr cm | rain 24hr cm | rain mn cm | humidity % | barometer mb |
| 20260905100058 | -17 | 225 | 0.0 | 0.0 | 0.00 | 0.00 | 0.00 | 1018.7 | |
| 20260905094550 | -17 | 225 | 0.0 | 0.0 | 0.00 | 0.00 | 0.00 | 1018.6 | |
| 20260905093046 | -17 | 225 | 1.6 | 6.4 | 0.00 | 0.00 | 0.00 | 1018.5 | |
| 20260905091541 | -17 | 225 | 0.0 | 0.0 | 0.00 | 0.00 | 0.00 | 1018.7 | |
| 20260905090039 | -17 | 225 | 0.0 | 3.2 | 0.00 | 0.00 | 0.00 | 1018.7 | |
| 20260905084538 | -17 | 225 | 0.0 | 0.0 | 0.00 | 0.00 | 0.00 | 1018.9 | |
| 20260905083032 | -17 | 225 | 0.0 | 1.6 | 0.00 | 0.00 | 0.00 | 1019.0 | |
| 20260905081524 | -17 | 225 | 0.0 | 1.6 | 0.00 | 0.00 | 0.00 | 1018.7 | |
| 20260905080031 | -17 | 226 | 0.0 | 1.6 | 0.00 | 0.00 | 0.00 | 1018.3 | |
| 20260905074519 | -17 | 226 | 0.0 | 1.6 | 0.00 | 0.00 | 0.00 | 1018.2 | |
| 20260905073010 | -17 | 226 | 0.0 | 1.6 | 0.00 | 0.00 | 0.00 | 1017.8 | |
| 20260905071511 | -17 | 226 | 0.0 | 1.6 | 0.00 | 0.00 | 0.00 | 1017.6 | |
| 20260905070003 | -17 | 226 | 0.0 | 1.6 | 0.00 | 0.00 | 0.00 | 1017.3 | |
| 20260905064604 | -17 | 226 | 0.0 | 1.6 | 0.00 | 0.00 | 0.00 | 1017.5 | |
| 20260905063055 | -17 | 226 | 0.0 | 1.6 | 0.00 | 0.00 | 0.00 | 1017.4 | |
| 20260905061556 | -17 | 226 | 0.0 | 0.0 | 0.00 | 0.00 | 0.00 | 1017.5 | |
| 20260905060044 | -17 | 226 | 0.0 | 0.0 | 0.00 | 0.00 | 0.00 | 1017.5 | |
| 20260905054540 | -17 | 226 | 0.0 | 0.0 | 0.00 | 0.00 | 0.00 | 1017.5 | |
| 20260905053033 | -17 | 226 | 0.0 | 0.0 | 0.00 | 0.00 | 0.00 | 1017.4 | |
| 20260905051540 | -17 | 226 | 0.0 | 0.0 | 0.00 | 0.00 | 0.00 | 1017.5 | |
| 20260905050026 | -17 | 226 | 0.0 | 3.2 | 0.00 | 0.00 | 0.00 | 1017.4 | |
| 20260905044522 | -17 | 226 | 0.0 | 0.0 | 0.00 | 0.00 | 0.00 | 1017.6 | |
| 20260905043017 | -17 | 226 | 0.0 | 1.6 | 0.00 | 0.00 | 0.00 | 1017.5 | |
| 20260905041513 | -17 | 226 | 0.0 | 0.0 | 0.00 | 0.00 | 0.00 | 1017.4 | |
| 20260905040008 | -17 | 226 | 0.0 | 3.2 | 0.00 | 0.00 | 0.00 | 1017.4 | |
| 20260905034503 | -17 | 226 | 0.0 | 0.0 | 0.00 | 0.00 | 0.00 | 1017.5 | |
| 20260905033117 | -17 | 226 | 0.0 | 0.0 | 0.00 | 0.00 | 0.00 | 1017.5 | |
| 20260905031611 | -17 | 226 | 0.0 | 0.0 | 0.00 | 0.00 | 0.00 | 1017.8 | |
| 20260905030058 | -17 | 226 | 0.0 | 0.0 | 0.00 | 0.00 | 0.00 | 1018.1 | |
| 20260905024547 | -17 | 226 | 0.0 | 0.0 | 0.00 | 0.00 | 0.00 | 1018.0 | |
| 20260905023053 | -17 | 226 | 0.0 | 0.0 | 0.00 | 0.00 | 0.00 | 1017.9 | |
| 20260905021538 | -17 | 226 | 0.0 | 0.0 | 0.00 | 0.00 | 0.00 | 1018.2 | |
| 20260905020037 | -17 | 226 | 0.0 | 0.0 | 0.00 | 0.00 | 0.00 | 1018.2 | |
| 20260905014530 | -17 | 226 | 0.0 | 0.0 | 0.00 | 0.00 | 0.00 | 1018.2 | |
| 20260905013025 | -17 | 226 | 0.0 | 0.0 | 0.00 | 0.00 | 0.00 | 1018.4 | |
| 20260905011521 | -17 | 226 | 0.0 | 0.0 | 0.00 | 0.00 | 0.00 | 1018.5 | |
| 20260905010016 | -17 | 226 | 0.0 | 0.0 | 0.00 | 0.00 | 0.00 | 1018.9 | |
| 20260905004512 | -17 | 226 | 0.0 | 4.8 | 0.00 | 0.00 | 0.00 | 1019.2 | |
| 20260905003007 | -17 | 226 | 0.0 | 6.4 | 0.00 | 0.00 | 0.00 | 1019.2 | |
| 20260905001503 | -17 | 226 | 0.0 | 0.0 | 0.00 | 0.00 | 0.00 | 1019.3 | |
| 20260905000121 | -17 | 226 | 0.0 | 1.6 | 0.00 | 0.00 | 0.00 | 1019.1 | |
| 20260904234554 | -17 | 226 | 0.0 | 0.0 | 0.00 | 0.00 | 0.00 | 1019.1 | |
| 20260904233051 | -17 | 226 | 0.0 | 0.0 | 0.00 | 0.00 | 0.00 | 1019.3 | |
| 20260904231545 | -17 | 226 | 3.2 | 8.0 | 0.00 | 0.00 | 0.00 | 1019.2 | |
| 20260904224540 | -17 | 223 | 3.2 | 8.0 | 0.00 | 0.00 | 0.00 | 1019.4 | |
| 20260904223043 | -17 | 221 | 3.2 | 11.3 | 0.00 | 0.00 | 0.00 | 1019.5 | |
| 20260904221544 | -17 | 235 | 8.0 | 16.1 | 0.00 | 0.00 | 0.00 | 1019.6 | |
| 20260904220044 | -17 | 219 | 6.4 | 11.3 | 0.00 | 0.00 | 0.00 | 1019.7 | |
| 20260904214538 | -17 | 214 | 4.8 | 8.0 | 0.00 | 0.00 | 0.00 | 1019.6 | |
| 20260904213040 | -17 | 239 | 4.8 | 8.0 | 0.00 | 0.00 | 0.00 | 1019.3 | |
| 20260904211535 | -17 | 239 | 0.0 | 0.0 | 0.00 | 0.00 | 0.00 | 1019.1 | |
| 20260904210036 | -17 | 239 | 0.0 | 8.0 | 0.00 | 0.00 | 0.00 | 1018.9 | |
| 20260904204535 | -17 | 239 | 4.8 | 8.0 | 0.00 | 0.00 | 0.00 | 1018.8 | |
| 20260904203030 | -17 | 243 | 3.2 | 8.0 | 0.00 | 0.00 | 0.00 | 1018.6 | |
| 20260904201524 | -17 | 243 | 0.0 | 0.0 | 0.00 | 0.00 | 0.00 | 1018.5 | |
| 20260904200022 | -17 | 243 | 3.2 | 9.7 | 0.00 | 0.00 | 0.00 | 1018.4 | |
| 20260904194516 | -17 | 221 | 0.0 | 6.4 | 0.00 | 0.00 | 0.00 | 1018.3 | |
| 20260904193012 | -17 | 243 | 0.0 | 8.0 | 0.00 | 0.00 | 0.00 | 1018.5 | |
| 20260904191507 | -17 | 259 | 0.0 | 4.8 | 0.00 | 0.00 | 0.00 | 1018.3 | |
| 20260904190002 | -17 | 317 | 1.6 | 8.0 | 0.00 | 0.00 | 0.00 | 1018.2 | |
| 20260904184558 | -17 | 360 | 0.0 | 9.7 | 0.00 | 0.00 | 0.00 | 1018.3 | |
| 20260904183109 | -17 | 14 | 0.0 | 14.5 | 0.00 | 0.00 | 0.00 | 1018.2 | |
| 20260904181549 | -17 | 24 | 4.8 | 14.5 | 0.00 | 0.00 | 0.00 | 1018.2 | |
| 20260904180047 | -17 | 360 | 8.0 | 14.5 | 0.00 | 0.00 | 0.00 | 1018.1 | |
| 20260904174543 | -17 | 41 | 4.8 | 24.1 | 0.00 | 0.00 | 0.00 | 1018.2 | |
| 20260904173038 | -17 | 1 | 8.0 | 20.9 | 0.00 | 0.00 | 0.00 | 1018.2 | |
| 20260904171540 | -17 | 41 | 17.7 | 27.4 | 0.00 | 0.00 | 0.00 | 1018.2 | |
| 20260904170029 | -17 | 32 | 20.9 | 30.6 | 0.00 | 0.00 | 0.00 | 1018.1 | |
| 20260904164524 | -17 | 36 | 19.3 | 24.1 | 0.00 | 0.00 | 0.00 | 1018.1 | |
| 20260904163020 | -17 | 21 | 14.5 | 29.0 | 0.00 | 0.00 | 0.00 | 1017.9 | |
| 20260904161515 | -17 | 17 | 16.1 | 27.4 | 0.00 | 0.00 | 0.00 | 1017.8 | |
| 20260904160012 | -17 | 23 | 12.9 | 19.3 | 0.00 | 0.00 | 0.00 | 1017.9 | |
| 20260904154507 | -17 | 12 | 11.3 | 22.5 | 0.00 | 0.00 | 0.00 | 1018.0 | |
| 20260904153002 | -17 | 51 | 8.0 | 16.1 | 0.00 | 0.00 | 0.00 | 1018.1 | |
| 20260904151557 | -17 | 346 | 9.7 | 19.3 | 0.00 | 0.00 | 0.00 | 1018.3 | |
| 20260904150053 | -17 | 58 | 11.3 | 17.7 | 0.00 | 0.00 | 0.00 | 1018.2 | |
| 20260904144548 | -17 | 302 | 6.4 | 16.1 | 0.00 | 0.00 | 0.00 | 1018.4 | |
| 20260904143044 | -17 | 11 | 9.7 | 19.3 | 0.00 | 0.00 | 0.00 | 1018.4 | |
| 20260904141542 | -17 | 23 | 17.7 | 22.5 | 0.00 | 0.00 | 0.00 | 1018.5 | |
| 20260904140043 | -17 | 5 | 8.0 | 24.1 | 0.00 | 0.00 | 0.00 | 1018.6 | |
| 20260904134542 | -17 | 36 | 9.7 | 17.7 | 0.00 | 0.00 | 0.00 | 1018.8 | |
| 20260904133046 | -17 | 25 | 9.7 | 17.7 | 0.00 | 0.00 | 0.00 | 1018.9 | |
| 20260904131546 | -17 | 15 | 6.4 | 16.1 | 0.00 | 0.00 | 0.00 | 1018.9 | |
| 20260904130033 | -17 | 30 | 9.7 | 16.1 | 0.00 | 0.00 | 0.00 | 1018.9 | |
| 20260904124529 | -17 | 13 | 8.0 | 20.9 | 0.00 | 0.00 | 0.00 | 1019.2 | |
| 20260904123024 | -17 | 6 | 12.9 | 19.3 | 0.00 | 0.00 | 0.00 | 1019.3 | |
| 20260904121520 | -17 | 19 | 6.4 | 14.5 | 0.00 | 0.00 | 0.00 | 1019.4 | |
| 20260904120020 | -17 | 31 | 9.7 | 20.9 | 0.00 | 0.00 | 0.00 | 1019.4 | |
| 20260904114511 | -17 | 36 | 11.3 | 19.3 | 0.00 | 0.00 | 0.00 | 1019.5 | |
| 20260904113019 | -17 | 19 | 11.3 | 17.7 | 0.00 | 0.00 | 0.00 | 1019.7 | |
| 20260904111502 | -17 | 10 | 6.4 | 14.5 | 0.00 | 0.00 | 0.00 | 1019.9 | |
| 20260904104559 | -17 | 355 | 8.0 | 14.5 | 0.00 | 0.00 | 0.00 | 1019.6 | |
| 20260904103057 | -17 | 284 | 1.6 | 6.4 | 0.00 | 0.00 | 0.00 | 1019.7 | |
| 20260904101552 | -17 | 254 | 0.0 | 0.0 | 0.00 | 0.00 | 0.00 | 1019.8 |